Waarnemingen

Advertentie
Mijn weer
Aberdeen/Dyce, Groot Brittannië (3091): temperatuur & dauwpunt: 17.11.2017 11:00:00 - 23.11.2017 11:00:00 (GMT)Aberdeen/Dyce, Groot Brittannië (3091): windsnelheid & windstoten: 17.11.2017 11:00:00 - 23.11.2017 11:00:00 (GMT)Aberdeen/Dyce, Groot Brittannië (3091): windrichting: 17.11.2017 11:00:00 - 23.11.2017 11:00:00 (GMT)Aberdeen/Dyce, Groot Brittannië (3091): luchtdruk: 17.11.2017 11:00:00 - 23.11.2017 11:00:00 (GMT)Aberdeen/Dyce, Groot Brittannië (3091): zicht: 17.11.2017 11:00:00 - 23.11.2017 11:00:00 (GMT)Aberdeen/Dyce, Groot Brittannië (3091): Zonneschijnduur: 17.11.2017 11:00:00 - 23.11.2017 11:00:00 (GMT)Aberdeen/Dyce, Groot Brittannië (3091): neerslag: 17.11.2017 11:00:00 - 23.11.2017 11:00:00 (GMT)
Datum & Tijd tt [°C] td [°C] ff [km/u] ff [kn] fx [km/u] fx [kn] dd ppp [hPa] vv [km] sd [min] rr [mm]
23.11.2017 11:00:00 2,0 -1,0 16 9 - - W - 10 - -
23.11.2017 10:00:00 2,2 -0,9 18 10 - - W 981,5 10 6 0,0
23.11.2017 09:00:00 2,0 -0,6 18 10 - - WZW 980,0 10 0 0,0
23.11.2017 08:00:00 1,3 0,5 16 9 - - WZW 979,4 10 0 0,0
23.11.2017 07:00:00 1,5 0,8 13 7 - - W 978,6 10 0 0,6
23.11.2017 06:00:00 1,3 0,9 15 8 - - W 978,4 10 0 1,0
23.11.2017 05:00:00 1,4 0,8 11 6 - - W 977,5 3,5 0 0,8
23.11.2017 04:00:00 2,0 1,3 15 8 - - NW 977,2 10 0 0,0
23.11.2017 03:00:00 1,9 1,3 9 5 - - NW 977,4 10 0 0,2
23.11.2017 02:00:00 1,8 1,2 13 7 - - NW 977,5 10 0 0,2
23.11.2017 01:00:00 2,1 1,4 13 7 - - NW 978,4 9 0 -
23.11.2017 00:00:00 2,7 1,8 13 7 - - WNW 978,7 6 - 1,0
22.11.2017 23:00:00 3,3 2,3 15 8 - - WNW 978,7 7 0 0,6
22.11.2017 22:00:00 3,5 2,3 5 3 - - WNW 978,9 10 0 0,0
22.11.2017 21:00:00 3,6 2,3 8 4 - - NW 979,2 10 0 0,0
22.11.2017 20:00:00 3,5 2,3 8 4 - - NNW 980,1 10 0 0,2
22.11.2017 19:00:00 3,5 2,4 13 7 - - WNW 981,2 10 0 0,2
22.11.2017 18:00:00 3,5 2,4 13 7 - - WNW 981,6 10 0 0,6
22.11.2017 17:00:00 3,7 2,5 15 8 - - NW 982,0 10 0 0,6
22.11.2017 16:00:00 3,9 2,6 16 9 - - NNW 982,1 10 0 0,6
22.11.2017 15:00:00 4,3 3,5 11 6 - - N 982,4 10 0 1,0
22.11.2017 14:00:00 5,1 3,7 11 6 - - N 983,5 10 0 0,6
22.11.2017 13:00:00 5,6 4,0 8 4 - - NNW 984,2 10 0 0,4
22.11.2017 12:00:00 6,4 4,4 4 2 - - - 985,0 10 0 0,2
22.11.2017 11:00:00 5,7 4,5 5 3 - - - 985,6 10 0 0,0
22.11.2017 10:00:00 5,3 4,2 2 1 - - - 986,0 10 0 0,0
22.11.2017 09:00:00 5,7 4,3 2 1 - - - 986,6 10 0 0,0
22.11.2017 08:00:00 5,7 3,5 4 2 - - OZO 986,8 10 0 0,0
22.11.2017 07:00:00 6,5 3,4 9 5 - - WZW 986,6 10 0 0,0
22.11.2017 06:00:00 4,0 3,5 4 2 - - - 986,6 10 0 0,0
22.11.2017 05:00:00 3,6 2,0 8 4 - - Z 986,7 10 0 0,0
22.11.2017 04:00:00 6,7 4,6 8 4 - - WZW 987,0 10 0 0,0
22.11.2017 03:00:00 7,4 4,9 13 7 - - W 986,6 10 0 0,0
22.11.2017 02:00:00 7,4 5,1 9 5 - - W 986,8 10 0 0,0
22.11.2017 01:00:00 7,3 5,9 13 7 - - W 986,3 10 0 0,0
22.11.2017 00:00:00 8,0 6,7 11 6 - - WZW 986,3 10 - 0,4
21.11.2017 23:00:00 9,1 8,1 21 11 - - W 986,1 6 0 -
21.11.2017 22:00:00 10,8 9,4 21 11 52 28 W 985,6 10 0 0,0
21.11.2017 21:00:00 11,2 9,6 29 16 52 28 ZZW 985,6 10 0 0,0
21.11.2017 20:00:00 11,0 9,4 29 16 54 29 ZZW 986,9 10 0 0,0
21.11.2017 19:00:00 10,2 9,4 22 12 - - Z 988,3 10 0 0,0
21.11.2017 18:00:00 9,6 9,5 15 8 - - ZZO 990,3 8 0 0,2
21.11.2017 17:00:00 9,1 9,0 11 6 - - ZZO 992,2 3,2 0 2,6
21.11.2017 16:00:00 8,7 8,5 8 4 - - ZO 994,2 5 0 1,6
21.11.2017 15:00:00 8,8 8,3 13 7 - - Z 996,0 6 0 1,8
21.11.2017 14:00:00 9,0 8,6 13 7 - - Z 997,2 8 0 1,4
21.11.2017 13:00:00 9,2 8,9 13 7 - - Z 999,1 5 0 0,8
21.11.2017 12:00:00 9,0 8,8 16 9 - - ZZO 1000,3 4,5 0 1,2
21.11.2017 11:00:00 8,7 8,6 18 10 - - ZO 1001,8 1,5 0 1,4
21.11.2017 10:00:00 8,6 8,5 16 9 - - ZO 1002,9 1,2 0 -
21.11.2017 09:00:00 8,1 8,0 18 10 - - ZO 1004,1 1,8 0 1,4
21.11.2017 08:00:00 7,9 7,8 16 9 - - ZO 1004,6 1,8 0 1,0
21.11.2017 07:00:00 7,6 7,6 16 9 - - OZO 1005,3 1,8 0 1,8
21.11.2017 06:00:00 7,1 7,1 21 11 - - OZO 1005,6 2,0 0 1,2
21.11.2017 05:00:00 7,0 6,9 15 8 - - OZO 1006,3 2,0 0 1,0
21.11.2017 04:00:00 6,7 6,6 16 9 - - OZO 1006,9 2,1 0 0,8
21.11.2017 03:00:00 6,6 6,5 13 7 - - OZO 1007,2 2,0 0 1,2
21.11.2017 02:00:00 6,5 6,2 13 7 - - OZO 1007,7 3,0 0 0,6
21.11.2017 01:00:00 6,7 6,3 16 9 - - O 1008,3 9 0 0,2
21.11.2017 00:00:00 6,5 5,8 11 6 - - O 1008,5 3,2 - 0,4
20.11.2017 23:00:00 6,7 5,8 11 6 - - O 1008,8 7 0 0,0
20.11.2017 22:00:00 6,6 6,2 9 5 - - O 1008,7 10 0 0,0
20.11.2017 21:00:00 6,4 6,2 11 6 - - OZO 1008,8 3,9 0 0,6
20.11.2017 20:00:00 6,4 6,2 11 6 - - O 1009,1 2,3 0 1,2
20.11.2017 19:00:00 6,3 6,0 2 1 - - - 1009,3 2,6 0 0,6
20.11.2017 18:00:00 6,5 5,5 8 4 - - O 1008,7 10 0 0,0
20.11.2017 17:00:00 6,4 5,7 13 7 - - O 1007,9 9 0 0,2
20.11.2017 16:00:00 6,3 5,9 5 3 - - - 1008,1 3,0 0 -
20.11.2017 15:00:00 6,2 5,6 9 5 - - O 1007,8 4,6 0 0,2
20.11.2017 14:00:00 6,5 5,4 11 6 - - ONO 1007,6 5 0 0,0
20.11.2017 13:00:00 6,7 5,7 13 7 - - ONO 1007,3 10 0 0,2
20.11.2017 12:00:00 6,6 5,8 16 9 - - O 1006,8 10 0 0,2
20.11.2017 11:00:00 6,5 5,9 13 7 - - O 1007,6 10 0 1,0
20.11.2017 10:00:00 5,7 5,1 9 5 - - O 1008,0 9 0 1,6
20.11.2017 09:00:00 5,3 4,8 8 4 - - O 1008,2 9 0 1,8
20.11.2017 08:00:00 4,7 4,4 2 1 - - - 1008,4 7 0 2,0
20.11.2017 07:00:00 3,8 3,7 4 2 - - - 1009,0 5 0 1,2
20.11.2017 06:00:00 2,6 2,5 4 2 - - NW 1009,5 5 0 -
20.11.2017 05:00:00 2,5 2,2 2 1 - - ONO 1010,8 8 0 0,6
20.11.2017 04:00:00 2,4 2,1 4 2 - - ZZO 1011,8 10 0 0,4
20.11.2017 03:00:00 2,2 1,9 4 2 - - OZO 1012,9 9 0 0,6
20.11.2017 02:00:00 2,3 1,7 4 2 - - - 1013,9 8 0 0,4
20.11.2017 01:00:00 2,6 1,4 5 3 - - ZZW 1014,8 9 0 0,2
20.11.2017 00:00:00 3,4 0,4 4 2 - - - 1015,7 10 - 0,0
19.11.2017 23:00:00 2,5 0,6 4 2 - - - 1016,0 10 0 0,0
19.11.2017 22:00:00 2,8 0,3 4 2 - - - 1017,0 10 0 0,0
19.11.2017 21:00:00 2,9 0,3 4 2 - - - 1017,9 10 0 0,0
19.11.2017 20:00:00 3,5 0,1 2 1 - - - 1018,3 10 0 0,0
19.11.2017 19:00:00 4,3 -0,1 5 3 - - - 1018,6 10 0 0,0
19.11.2017 18:00:00 4,3 0,2 11 6 - - WZW 1019,1 10 0 0,0
19.11.2017 17:00:00 4,6 0,5 11 6 - - WNW 1019,4 10 0 0,0
19.11.2017 16:00:00 4,8 0,7 13 7 - - WNW 1019,6 10 0 0,0
19.11.2017 15:00:00 5,1 0,6 11 6 - - W 1019,7 10 24 0,0
19.11.2017 14:00:00 5,8 0,4 11 6 - - W 1020,0 10 42 0,0
19.11.2017 13:00:00 6,0 0,1 13 7 - - WNW 1020,1 10 60 0,0
19.11.2017 12:00:00 5,6 0,5 24 13 - - NW 1020,1 10 60 0,0
19.11.2017 11:00:00 5,1 0,3 11 6 - - WNW 1020,5 10 60 0,0
19.11.2017 10:00:00 3,7 -0,2 13 7 - - W 1020,6 10 60 0,0
19.11.2017 09:00:00 2,9 -0,4 16 9 - - W 1020,5 10 12 0,0
19.11.2017 08:00:00 3,1 -0,5 18 10 - - W 1020,0 10 0 -
19.11.2017 07:00:00 3,4 -0,3 18 10 - - WNW 1019,6 10 0 0,0
19.11.2017 06:00:00 3,7 0,0 21 11 - - WNW 1019,4 10 0 0,0
19.11.2017 05:00:00 4,0 -0,1 28 15 46 25 WNW 1019,1 10 0 0,0
19.11.2017 04:00:00 4,3 -0,1 28 15 - - WNW 1018,8 10 0 0,0
19.11.2017 03:00:00 4,0 -0,1 24 13 - - WNW 1018,5 10 0 0,0
19.11.2017 02:00:00 4,0 0,2 22 12 - - W 1018,3 10 0 0,0
19.11.2017 01:00:00 4,1 0,5 24 13 - - WNW 1017,4 10 0 0,0
19.11.2017 00:00:00 4,2 0,8 26 14 - - WNW 1017,3 10 - 0,0
18.11.2017 23:00:00 4,2 1,2 24 13 - - WNW 1017,0 10 0 0,0
18.11.2017 22:00:00 4,4 1,2 29 16 46 25 WNW 1016,6 10 0 0,0
18.11.2017 21:00:00 4,5 1,1 28 15 46 25 WNW 1016,2 10 0 0,0
18.11.2017 20:00:00 4,5 1,4 24 13 - - WNW 1016,1 10 0 0,2
18.11.2017 19:00:00 4,2 1,9 22 12 - - W 1015,7 10 0 0,4
18.11.2017 18:00:00 4,3 1,0 31 17 50 27 WNW 1015,4 10 0 0,0
18.11.2017 17:00:00 4,6 0,3 35 19 63 34 WNW 1014,8 10 0 0,0
18.11.2017 16:00:00 5,4 -1,2 29 16 55 30 WNW 1014,6 10 6 0,0
18.11.2017 15:00:00 5,9 -1,5 34 18 61 33 WNW 1014,4 10 60 0,0
18.11.2017 14:00:00 6,0 -1,3 39 21 55 30 WNW 1013,9 10 60 0,0
18.11.2017 13:00:00 6,0 -1,6 34 18 55 30 WNW 1014,1 10 60 0,0
18.11.2017 12:00:00 5,7 -1,9 29 16 57 31 W 1014,0 10 60 0,0
18.11.2017 11:00:00 5,1 -1,2 24 13 48 26 W 1014,3 10 60 0,0
18.11.2017 10:00:00 4,6 -1,6 22 12 - - WNW 1014,3 10 60 0,0
18.11.2017 09:00:00 4,0 -0,9 31 17 54 29 WNW 1013,8 10 0 0,0
18.11.2017 08:00:00 3,8 -1,3 34 18 48 26 W 1013,7 10 0 0,0
18.11.2017 07:00:00 3,7 -1,0 21 11 - - W 1013,7 10 0 0,0
18.11.2017 06:00:00 2,9 -0,3 24 13 - - W 1013,3 10 0 0,0
18.11.2017 05:00:00 3,7 -0,9 26 14 - - W 1013,1 10 0 0,0
18.11.2017 04:00:00 3,5 0,6 24 13 - - W 1012,9 10 0 0,0
18.11.2017 03:00:00 4,1 1,9 22 12 67 36 WNW 1013,0 10 0 0,2
18.11.2017 02:00:00 5,2 1,2 24 13 - - WNW 1012,5 10 0 0,0
18.11.2017 01:00:00 4,9 1,6 21 11 46 25 WNW 1012,6 10 0 0,2
18.11.2017 00:00:00 5,5 3,1 24 13 52 28 WNW 1012,7 10 - 0,2
17.11.2017 23:00:00 6,5 2,2 16 9 - - W 1012,5 10 0 0,0
17.11.2017 22:00:00 6,7 2,0 18 10 - - W 1012,8 10 0 0,0
17.11.2017 21:00:00 6,5 1,5 11 6 - - WZW 1013,4 10 0 0,0
17.11.2017 20:00:00 6,7 1,3 16 9 - - W 1013,5 10 0 0,0
17.11.2017 19:00:00 6,2 1,1 13 7 - - WZW 1014,2 10 0 0,0
17.11.2017 18:00:00 5,3 1,1 9 5 - - ZW 1014,7 10 0 0,0
17.11.2017 17:00:00 6,8 1,3 13 7 - - WZW 1015,3 10 0 0,0
17.11.2017 16:00:00 8,0 1,8 16 9 - - W 1016,0 10 6 0,0
17.11.2017 15:00:00 8,7 2,2 15 8 - - WZW 1016,2 10 60 0,0
17.11.2017 14:00:00 9,1 2,0 16 9 - - WZW 1016,7 10 54 0,0
17.11.2017 13:00:00 8,6 2,2 16 9 - - ZW 1017,6 10 18 0,0
17.11.2017 12:00:00 6,9 2,3 15 8 - - ZW 1018,1 10 0 0,0
17.11.2017 11:00:00 6,3 2,2 18 10 - - ZZW 1018,4 10 0 0,0

tt = temperatuur
td = dauwpunt
ff = windsnelheid
fx = windstoten
dd = windrichting
ppp = luchtdruk
vv = zicht
sd = Zonneschijnduur
rr = neerslag

Weerstations in de omgeving